Istrana, Italy

1:15 PM CEST on April 22, 2018 (GMT +0200)
Istrana Mil

Weather History for LIPS - May, 2013

Change the Weather History Date:

Thursday, May 23, 2013

  Actual Average Record
Temperature  
Mean Temperature 64 °F -  
Max Temperature 73 °F 77 °F 91 °F (2011)
Min Temperature 55 °F 57 °F 50 °F (1997)
Degree Days  
Heating Degree Days 1    
Growing Degree Days 14 (Base 50)    
Moisture  
Dew Point 50 °F    
Average Humidity 68    
Maximum Humidity 94    
Minimum Humidity 26    
Precipitation  
Precipitation 0.08 in 0.14 in - ()
Sea Level Pressure  
Sea Level Pressure 29.62 in    
Wind  
Wind Speed 5 mph ()    
Max Wind Speed 10 mph    
Max Gust Speed -    
Visibility 9.2 miles    
Events Rain    
Averages and records for this station are not official NWS values.
T = Trace of Precipitation, MM = Missing Value Source: Averaged Metar Reports

Daily Weather History Graph

Daily Weather History Graph

Search for Another Location

Airport or City:

Astronomy

May. 23, 2013 Rise Set
Actual Time 5:32 AM CEST 8:45 PM CEST
Civil Twilight 4:56 AM CEST 9:21 PM CEST
Nautical Twilight 4:09 AM CEST 10:07 PM CEST
Astronomical Twilight 3:12 AM CEST 11:05 PM CEST
Moon 6:53 PM CEST (5/23) 4:11 AM CEST (5/23)
Length of Visible Light 16h 24m
Length of Day
15h 12m
Waxing Gibbous, 95% of the Moon is Illuminated
May 23
Waxing Gibbous
May 25
Full
May 31
Last Quarter
Jun 8
New
Jun 16
First Quarter

Hourly Weather History & Observations

Time (CEST) Temp. Dew Point Humidity Pressure Visibility Wind Dir Wind Speed Gust Speed Precip Events Conditions
4:55 AM 59.0 °F 51.8 °F 77% 29.89 in - North - - N/A   Mostly Cloudy
5:00 AM 59 °F 51 °F 67% 29.60 in 16 mi NNE 6.9 mph - -   Mostly Cloudy
5:55 AM 59.0 °F 50.0 °F 72% 29.89 in - North - - N/A   Mostly Cloudy
6:55 AM 59.0 °F 51.8 °F 77% 29.89 in - North - - N/A   Mostly Cloudy
7:55 AM 59.0 °F 51.8 °F 77% 29.59 in - North - - N/A   Mostly Cloudy
8:55 AM 62.6 °F 51.8 °F 68% 29.59 in - North - - N/A   Mostly Cloudy
10:55 AM 68.0 °F 46.4 °F 46% 29.59 in - North - - N/A   Mostly Cloudy
11:55 AM 68.0 °F 44.6 °F 43% 29.59 in - North - - N/A   Mostly Cloudy
1:55 PM 71.6 °F 42.8 °F 35% 29.56 in - North - - N/A   Scattered Clouds
2:00 PM 71 °F 44 °F 26% 29.57 in 16 mi SW 3.5 mph - -   Partly Cloudy
2:55 PM 71.6 °F 48.2 °F 43% 29.56 in - North - - N/A   Scattered Clouds
3:55 PM 71.6 °F 51.8 °F 50% 29.53 in - North - - N/A   Mostly Cloudy
4:55 PM 68.0 °F 44.6 °F 43% 29.56 in - North - - N/A Rain Rain
5:00 PM 67 °F 45 °F 33% 29.56 in 9 mi SE 10.4 mph - - Rain Rain
5:55 PM 59.0 °F 53.6 °F 82% 29.56 in - North - - N/A Rain Rain
6:55 PM 57.2 °F 53.6 °F 88% 29.56 in - North - - N/A Rain Light Rain
7:55 PM 57.2 °F 53.6 °F 88% 29.56 in - North - - N/A Rain Light Rain
8:00 PM 56 °F 53 °F 86% 29.59 in 6 mi North 8.1 mph - - Rain Light Rain
8:55 PM 55.4 °F 53.6 °F 94% 29.59 in - North - - N/A Rain Light Rain
9:55 PM 55.4 °F 53.6 °F 94% 29.59 in 4.3 mi North 9.2 mph - N/A Rain Light Rain
10:55 PM 55.4 °F 53.6 °F 94% 29.59 in - North - - N/A Rain Light Rain
11:00 PM 55 °F 53 °F 91% 29.62 in 4 mi North 5.8 mph - - Rain Light Rain
11:55 PM 55.4 °F 53.6 °F 94% 29.59 in - North - - N/A Rain Light Rain